Weather History for VOTR - September, 2013

Change the Weather History Date:

Friday, September 27, 2013

  Actual Average Record
Temperature  
Mean Temperature 88 °F -  
Max Temperature 99 °F 86 °F 101 °F (2012)
Min Temperature 77 °F 76 °F 35 °F (2004)
Cooling Degree Days 23    
Growing Degree Days 38 (Base 50)    
Moisture  
Dew Point 73 °F    
Average Humidity 63    
Maximum Humidity 84    
Minimum Humidity 31    
Precipitation  
Precipitation 0.00 in - - ()
Sea Level Pressure  
Sea Level Pressure 29.82 in    
Wind  
Wind Speed 4 mph ()    
Max Wind Speed 15 mph    
Max Gust Speed -    
Visibility 4.1 miles    
Events      
Averages and records for this station are not official NWS values.
T = Trace of Precipitation, MM = Missing Value Source: Averaged Metar Reports

Daily Weather History Graph

Daily Weather History Graph

Search for Another Location

Airport or City:

Trip Planner

Search our weather history database for the weather conditions in past years. The results will help you decide how hot, cold, wet, or windy it might be!

Date:

Astronomy

Sep. 27, 2013 Rise Set
Actual Time 6:04 AM IST 6:08 PM IST
Civil Twilight 5:43 AM IST 6:29 PM IST
Nautical Twilight 5:18 AM IST 6:53 PM IST
Astronomical Twilight 4:54 AM IST 7:17 PM IST
Moon 12:23 AM IST (9/28) 12:29 PM IST (9/27)
Length of Visible Light 12h 46m
Length of Day
12h 04m
Waning Gibbous, 49% of the Moon is Illuminated
Sep 27
Waning Gibbous
Oct 5
New
Oct 12
First Quarter
Oct 19
Full
Oct 27
Last Quarter

Hourly Weather History & Observations

Time (IST) Temp. Heat Index Dew Point Humidity Pressure Visibility Wind Dir Wind Speed Gust Speed Precip Events Conditions
12:10 AM 82.4 °F 89.5 °F 75.2 °F 79% 29.86 in 3.7 mi Calm Calm - N/A   Scattered Clouds
12:40 AM 82.4 °F 89.5 °F 75.2 °F 79% 29.86 in 3.7 mi Calm Calm - N/A   Scattered Clouds
1:10 AM 82.4 °F 89.5 °F 75.2 °F 79% 29.83 in 3.7 mi Calm Calm - N/A   Scattered Clouds
1:40 AM 82.4 °F 89.5 °F 75.2 °F 79% 29.83 in 3.7 mi Calm Calm - N/A   Scattered Clouds
2:10 AM 80.6 °F 86.2 °F 75.2 °F 84% 29.83 in 3.7 mi Calm Calm - N/A   Scattered Clouds
2:40 AM 80.6 °F 85.4 °F 73.4 °F 79% 29.83 in 3.7 mi Calm Calm - N/A   Scattered Clouds
3:10 AM 80.6 °F 85.4 °F 73.4 °F 79% 29.80 in 3.7 mi Calm Calm - N/A   Scattered Clouds
3:40 AM 80.6 °F 85.4 °F 73.4 °F 79% 29.80 in 3.7 mi Calm Calm - N/A   Scattered Clouds
4:10 AM 80.6 °F 85.4 °F 73.4 °F 79% 29.80 in 3.7 mi Calm Calm - N/A   Scattered Clouds
4:40 AM 78.8 °F - 71.6 °F 78% 29.83 in 3.7 mi Calm Calm - N/A   Scattered Clouds
5:10 AM 78.8 °F - 71.6 °F 78% 29.83 in 3.7 mi Calm Calm - N/A   Scattered Clouds
5:30 AM 80 °F - 74 °F 78% 29.84 in 2 mi Calm Calm - -   Haze
5:40 AM 78.8 °F - 71.6 °F 78% 29.83 in 3.7 mi Calm Calm - N/A   Scattered Clouds
6:10 AM 78.8 °F - 73.4 °F 83% 29.86 in 3.7 mi Calm Calm - N/A   Scattered Clouds
6:40 AM 80.6 °F 85.4 °F 73.4 °F 79% 29.86 in 3.7 mi West 5.8 mph - N/A   Scattered Clouds
7:10 AM 82.4 °F 88.2 °F 73.4 °F 74% 29.89 in 3.7 mi West 5.8 mph - N/A   Partly Cloudy
7:40 AM 82.4 °F 88.2 °F 73.4 °F 74% 29.89 in 3.7 mi West 6.9 mph - N/A   Partly Cloudy
8:10 AM 82.4 °F 88.2 °F 73.4 °F 74% 29.89 in 3.7 mi West 9.2 mph - N/A   Scattered Clouds
8:30 AM 83 °F - 72 °F 63% 29.89 in 2 mi WSW 9.2 mph - -   Haze
8:40 AM 84.2 °F 90.9 °F 73.4 °F 70% 29.89 in 3.7 mi West 8.1 mph - N/A   Scattered Clouds
9:10 AM 84.2 °F 90.9 °F 73.4 °F 70% 29.89 in 3.7 mi West 11.5 mph - N/A   Partly Cloudy
9:40 AM 86.0 °F 91.8 °F 71.6 °F 62% 29.89 in 3.7 mi WSW 15.0 mph - N/A   Partly Cloudy
10:10 AM 86.0 °F 91.8 °F 71.6 °F 62% 29.89 in 3.7 mi WNW 12.7 mph - N/A   Partly Cloudy
10:40 AM 87.8 °F 93.8 °F 71.6 °F 58% 29.89 in 3.7 mi WNW 11.5 mph - N/A   Partly Cloudy
11:10 AM 89.6 °F 94.7 °F 69.8 °F 52% 29.86 in 3.7 mi WNW 15.0 mph - N/A   Partly Cloudy
11:30 AM 92 °F - 70 °F 38% 29.84 in 2 mi NW 12.7 mph - -   Haze
11:40 AM 91.4 °F 98.4 °F 71.6 °F 52% 29.83 in 3.7 mi West 12.7 mph - N/A   Partly Cloudy
12:10 PM 93.2 °F 98.8 °F 69.8 °F 46% 29.83 in 5.0 mi West 9.2 mph - N/A   Partly Cloudy
12:40 PM 95.0 °F 101.3 °F 69.8 °F 44% 29.80 in 5.0 mi West 9.2 mph - N/A   Partly Cloudy
1:10 PM 95.0 °F 101.3 °F 69.8 °F 44% 29.80 in 5.0 mi NNW 10.4 mph - N/A   Scattered Clouds
1:40 PM 96.8 °F 103.1 °F 69.8 °F 41% 29.77 in 5.0 mi NNW 6.9 mph - N/A   Scattered Clouds
2:10 PM 96.8 °F 103.1 °F 69.8 °F 41% 29.74 in 6.2 mi WNW 2.3 mph - N/A   Partly Cloudy
2:30 PM 98 °F - 70 °F 31% 29.74 in 6 mi NW 3.5 mph - -   Partly Cloudy
2:40 PM 96.8 °F 103.1 °F 69.8 °F 41% 29.74 in 6.2 mi West 3.5 mph - N/A   Partly Cloudy
3:10 PM 96.8 °F 103.1 °F 69.8 °F 41% 29.74 in 6.2 mi Variable 3.5 mph - N/A   Partly Cloudy
3:40 PM 98.6 °F 105.5 °F 69.8 °F 39% 29.71 in 6.2 mi Variable 2.3 mph - N/A   Partly Cloudy
4:10 PM 98.6 °F 105.5 °F 69.8 °F 39% 29.71 in 6.2 mi Variable 2.3 mph - N/A   Partly Cloudy
4:40 PM 96.8 °F 103.1 °F 69.8 °F 41% 29.74 in 6.2 mi East 4.6 mph - N/A   Partly Cloudy
5:10 PM 96.8 °F 103.1 °F 69.8 °F 41% 29.74 in 6.2 mi ENE 4.6 mph - N/A   Partly Cloudy
5:30 PM 95 °F - 69 °F 34% 29.72 in 6 mi East 5.8 mph - -   Partly Cloudy
5:40 PM 95.0 °F 101.3 °F 69.8 °F 44% 29.74 in 6.2 mi East 4.6 mph - N/A   Partly Cloudy
6:10 PM 93.2 °F 98.8 °F 69.8 °F 46% 29.74 in 5.0 mi SSE 4.6 mph - N/A   Partly Cloudy
6:40 PM 91.4 °F 96.8 °F 69.8 °F 49% 29.74 in 3.7 mi SSE 3.5 mph - N/A   Partly Cloudy
7:10 PM 91.4 °F 100.1 °F 73.4 °F 55% 29.77 in 3.7 mi SSE 9.2 mph - N/A   Partly Cloudy
7:40 PM 89.6 °F 99.8 °F 75.2 °F 62% 29.80 in 3.7 mi SE 10.4 mph - N/A   Scattered Clouds
8:10 PM 87.8 °F 97.6 °F 75.2 °F 66% 29.80 in 3.7 mi SSE 11.5 mph - N/A   Scattered Clouds
8:30 PM 87 °F - 78 °F 68% 29.81 in 2 mi SSE 10.4 mph - -   Partly Cloudy
8:40 PM 87.8 °F 99.7 °F 77.0 °F 70% 29.80 in 3.7 mi SSE 10.4 mph - N/A   Scattered Clouds
9:10 PM 86.0 °F 96.9 °F 77.0 °F 74% 29.86 in 3.7 mi South 9.2 mph - N/A   Mostly Cloudy
9:40 PM 86.0 °F 96.9 °F 77.0 °F 74% 29.86 in 3.7 mi South 9.2 mph - N/A   Scattered Clouds
10:10 PM 84.2 °F 92.3 °F 75.2 °F 74% 29.86 in 3.7 mi SSW 6.9 mph - N/A   Scattered Clouds
10:40 PM 84.2 °F 92.3 °F 75.2 °F 74% 29.86 in 3.7 mi SSE 3.5 mph - N/A   Scattered Clouds
11:10 PM 84.2 °F 92.3 °F 75.2 °F 74% 29.86 in 3.7 mi SSE 2.3 mph - N/A   Scattered Clouds
11:30 PM 83 °F - 76 °F 73% 29.85 in 2 mi South 4.6 mph - -   Partly Cloudy
11:40 PM 84.2 °F 92.3 °F 75.2 °F 74% 29.86 in 3.7 mi South 4.6 mph - N/A   Scattered Clouds